Guymon, OK

3:53 PM CST on December 15, 2017 (GMT -0600)
Guymon Municipal

Weather History for KGUY - July, 2014

Change the Weather History Date:

Monday, July 28, 2014

  Actual Average Record
Temperature  
Mean Temperature 69 °F 80 °F  
Max Temperature 75 °F 94 °F 106 °F (2011)
Min Temperature 63 °F 66 °F 53 °F (2005)
Degree Days  
Heating Degree Days 0 0  
Month to date heating degree days 4 0  
Since 1 June heating degree days 9 8  
Since 1 July heating degree days 4 0  
Cooling Degree Days 4 15  
Month to date cooling degree days 413 410  
Year to date cooling degree days 940 798  
Since 1 June cooling degree days 762 690  
Growing Degree Days 18 (Base 50)    
Moisture  
Dew Point 59 °F    
Average Humidity 73    
Maximum Humidity 93    
Minimum Humidity 53    
Precipitation  
Precipitation 0.21 in 0.10 in 0.86 in (2015)
Month to date precipitation 1.46 2.39  
Year to date precipitation 7.19 11.58  
Snow  
Snow 0.00 in - - ()
Month to date snowfall 0.0  
Since 1 June snowfall 0.0  
Since 1 July snowfall 0.0  
Snow Depth 0.00 in    
Sea Level Pressure  
Sea Level Pressure 30.19 in    
Wind  
Wind Speed 10 mph (South)    
Max Wind Speed 26 mph    
Max Gust Speed 35 mph    
Visibility 10 miles    
Events Rain , Thunderstorm    
T = Trace of Precipitation, MM = Missing Value Source: NWS Daily Summary

Daily Weather History Graph

Daily Weather History Graph

Search for Another Location

Airport or City:

Trip Planner

Search our weather history database for the weather conditions in past years. The results will help you decide how hot, cold, wet, or windy it might be!

Date:

Astronomy

Jul. 28, 2014 Rise Set
Actual Time 6:48 AM CDT 8:55 PM CDT
Civil Twilight 6:19 AM CDT 9:24 PM CDT
Nautical Twilight 5:44 AM CDT 9:59 PM CDT
Astronomical Twilight 5:06 AM CDT 10:37 PM CDT
Moon 8:27 AM CDT (7/28) 9:43 PM CDT (7/28)
Length of Visible Light 15h 04m
Length of Day
14h 07m
Waxing Crescent, 3% of the Moon is Illuminated
Jul 28
Waxing Crescent
Aug 3
First Quarter
Aug 10
Full
Aug 17
Last Quarter
Aug 25
New

Hourly Weather History & Observations

Time (CDT) Temp. Dew Point Humidity Pressure Visibility Wind Dir Wind Speed Gust Speed Precip Events Conditions
12:53 AM 73.0 °F 57.9 °F 59% 30.13 in 10.0 mi ENE 5.8 mph - N/A   Clear
1:53 AM 71.1 °F 57.9 °F 63% 30.12 in 10.0 mi NNE 3.5 mph - N/A   Partly Cloudy
2:53 AM 73.0 °F 55.0 °F 53% 30.11 in 10.0 mi East 5.8 mph - N/A   Scattered Clouds
3:53 AM 71.1 °F 57.0 °F 61% 30.11 in 10.0 mi North 3.5 mph - N/A   Overcast
4:09 AM 71.1 °F 57.0 °F 61% 30.26 in 10.0 mi Calm Calm - N/A Thunderstorm Thunderstorm
4:35 AM 72.0 °F 55.9 °F 57% 30.32 in 10.0 mi West 24.2 mph 31.1 mph N/A Thunderstorm Overcast
4:50 AM 73.4 °F 55.4 °F 53% 30.33 in 10.0 mi West 24.2 mph 32.2 mph N/A Thunderstorm Overcast
4:53 AM 71.1 °F 57.0 °F 61% 30.19 in 10.0 mi West 23.0 mph 32.2 mph N/A Thunderstorm Overcast
5:22 AM 68.0 °F 59.0 °F 73% 30.34 in 10.0 mi WSW 9.2 mph - N/A   Mostly Cloudy
5:53 AM 66.0 °F 59.0 °F 78% 30.20 in 10.0 mi WSW 13.8 mph - 0.00 in Rain Light Rain
6:53 AM 64.0 °F 61.0 °F 90% 30.21 in 10.0 mi SW 11.5 mph - 0.02 in Rain Light Rain
7:53 AM 64.0 °F 61.0 °F 90% 30.25 in 10.0 mi SSW 10.4 mph - 0.05 in Rain Rain
9:53 AM 64.0 °F 57.9 °F 80% 30.22 in 10.0 mi SE 11.5 mph - 0.05 in Rain Light Rain
10:53 AM 66.0 °F 59.0 °F 78% 30.23 in 10.0 mi South 13.8 mph - 0.00 in   Overcast
11:53 AM 71.1 °F 57.9 °F 63% 30.24 in 10.0 mi South 10.4 mph - N/A   Mostly Cloudy
2:53 PM 72.0 °F 57.9 °F 61% 30.21 in 10.0 mi South 11.5 mph - N/A   Overcast
3:53 PM 73.9 °F 61.0 °F 64% 30.19 in 10.0 mi South 12.7 mph - N/A   Mostly Cloudy
4:53 PM 73.0 °F 61.0 °F 66% 30.18 in 10.0 mi South 10.4 mph 19.6 mph N/A   Clear
5:53 PM 73.9 °F 60.1 °F 62% 30.16 in 10.0 mi South 8.1 mph - N/A   Overcast
6:53 PM 73.0 °F 61.0 °F 66% 30.14 in 10.0 mi South 6.9 mph - N/A   Clear
7:53 PM 72.0 °F 60.1 °F 66% 30.14 in 10.0 mi South 6.9 mph - N/A   Clear
8:53 PM 71.1 °F 61.0 °F 70% 30.14 in 10.0 mi South 4.6 mph - N/A   Clear
9:53 PM 69.1 °F 62.1 °F 78% 30.15 in 10.0 mi SE 3.5 mph - N/A   Clear
10:53 PM 70.0 °F 61.0 °F 73% 30.16 in 10.0 mi SE 5.8 mph - N/A   Mostly Cloudy
11:53 PM 68.0 °F 61.0 °F 78% 30.14 in 10.0 mi SSE 5.8 mph - N/A   Mostly Cloudy